TimeMST,TemperatureF,Dew PointF,Humidity,Sea Level PressureIn,VisibilityMPH,Wind Direction,Wind SpeedMPH,Gust SpeedMPH,PrecipitationIn,Events,Conditions,WindDirDegrees,DateUTC
12:53 AM,30.0,21.0,69,30.04,10.0,WSW,6.9,-,N/A,,Clear,240,2013-01-26 07:53:00
1:53 AM,33.1,23.0,66,30.01,10.0,WSW,10.4,-,N/A,,Clear,250,2013-01-26 08:53:00
2:53 AM,32.0,23.0,69,29.99,10.0,WSW,10.4,-,N/A,,Clear,250,2013-01-26 09:53:00
3:53 AM,32.0,23.0,69,29.98,10.0,West,10.4,-,N/A,,Clear,270,2013-01-26 10:53:00
4:53 AM,32.0,23.0,69,29.99,10.0,West,12.7,-,N/A,,Clear,270,2013-01-26 11:53:00
5:53 AM,32.0,23.0,69,30.02,10.0,West,15.0,-,N/A,,Clear,270,2013-01-26 12:53:00
6:53 AM,30.0,23.0,75,30.04,10.0,West,12.7,-,N/A,,Clear,270,2013-01-26 13:53:00
7:53 AM,33.1,25.0,72,30.04,10.0,West,9.2,-,N/A,,Clear,270,2013-01-26 14:53:00
8:53 AM,41.0,26.1,55,30.02,10.0,West,10.4,-,N/A,,Clear,270,2013-01-26 15:53:00
9:53 AM,45.0,27.0,49,29.99,10.0,West,5.8,-,N/A,,Clear,270,2013-01-26 16:53:00
10:53 AM,51.1,28.0,41,29.98,10.0,West,5.8,-,N/A,,Clear,260,2013-01-26 17:53:00
11:53 AM,53.1,27.0,37,29.95,10.0,West,6.9,-,N/A,,Clear,270,2013-01-26 18:53:00
12:53 PM,55.0,27.0,34,29.90,10.0,Calm,Calm,-,N/A,,Clear,0,2013-01-26 19:53:00
1:53 PM,55.9,27.0,33,29.85,10.0,NE,3.5,-,N/A,,Clear,40,2013-01-26 20:53:00
2:53 PM,57.0,26.1,30,29.85,10.0,SE,9.2,-,N/A,,Clear,130,2013-01-26 21:53:00
3:53 PM,55.0,27.0,34,29.84,10.0,ESE,10.4,-,N/A,,Overcast,110,2013-01-26 22:53:00
4:53 PM,50.0,27.0,41,29.84,10.0,East,8.1,-,N/A,,Overcast,100,2013-01-26 23:53:00
5:53 PM,46.9,28.0,48,29.84,10.0,ESE,9.2,-,N/A,,Overcast,120,2013-01-27 00:53:00
6:53 PM,46.0,28.9,51,29.86,10.0,SE,13.8,-,0.00,Rain,Light Rain,130,2013-01-27 01:53:00
7:53 PM,46.0,30.0,54,29.83,10.0,ESE,6.9,-,0.00,,Overcast,110,2013-01-27 02:53:00
8:53 PM,41.0,33.1,73,29.80,10.0,Calm,Calm,-,0.00,Rain,Light Rain,0,2013-01-27 03:53:00
9:53 PM,42.1,30.9,65,29.77,10.0,South,5.8,-,0.00,Rain,Light Rain,170,2013-01-27 04:53:00
10:53 PM,41.0,32.0,70,29.73,10.0,Calm,Calm,-,0.00,Rain,Light Rain,0,2013-01-27 05:53:00
11:53 PM,41.0,35.1,79,29.71,10.0,East,3.5,-,0.00,,Overcast,90,2013-01-27 06:53:00